Time,TemperatureF,DewpointF,PressureIn,WindDirection,WindDirectionDegrees,WindSpeedMPH,WindSpeedGustMPH,Humidity,HourlyPrecipIn,Conditions,Clouds,dailyrainin,SoftwareType,DateUTC
2013-08-23 00:00:00,57.7,55.7,30.03,NE,51,0.0,0.0,93,0.00,,---,1.04,VWS V14.01,2013-08-23 05:00:00,
2013-08-23 00:30:00,57.0,55.3,30.03,NE,51,0.0,0.0,94,0.00,,---,0.00,VWS V14.01,2013-08-23 05:30:00,
2013-08-23 01:00:00,57.2,55.2,30.03,NE,51,0.0,0.0,93,0.00,,---,0.00,VWS V14.01,2013-08-23 06:00:00,
2013-08-23 01:30:00,58.5,54.7,30.02,NE,51,0.0,0.0,87,0.00,,---,0.00,VWS V14.01,2013-08-23 06:30:00,
2013-08-23 02:00:00,58.3,54.1,30.03,NE,51,0.0,0.0,86,0.00,,---,0.00,VWS V14.01,2013-08-23 07:00:00,
2013-08-23 02:30:00,57.2,53.7,30.02,NE,51,0.0,0.0,88,0.00,,---,0.00,VWS V14.01,2013-08-23 07:30:00,
2013-08-23 03:00:00,57.1,53.9,30.03,NE,51,0.0,0.0,89,0.00,,---,0.00,VWS V14.01,2013-08-23 08:00:00,
2013-08-23 03:30:00,57.2,54.6,30.03,NE,51,0.0,0.0,91,0.00,,---,0.00,VWS V14.01,2013-08-23 08:30:00,
2013-08-23 04:00:00,57.5,54.9,30.03,NE,51,0.0,0.0,91,0.00,,---,0.00,VWS V14.01,2013-08-23 09:00:00,
2013-08-23 04:30:00,57.4,54.8,30.03,NE,51,0.0,0.0,91,0.00,,---,0.00,VWS V14.01,2013-08-23 09:30:00,
2013-08-23 05:00:00,55.5,53.2,30.04,NE,51,0.0,0.0,92,0.00,,---,0.00,VWS V14.01,2013-08-23 10:00:00,
2013-08-23 05:30:00,54.8,52.8,30.05,NE,51,0.0,0.0,93,0.00,,---,0.00,VWS V14.01,2013-08-23 10:30:00,
2013-08-23 06:00:00,54.5,52.8,30.06,NE,51,0.0,0.0,94,0.00,,---,0.00,VWS V14.01,2013-08-23 11:00:00,
2013-08-23 06:30:00,54.2,52.5,30.07,NE,51,0.0,0.0,94,0.00,,---,0.00,VWS V14.01,2013-08-23 11:30:00,
2013-08-23 07:00:00,57.6,56.5,30.07,NE,51,0.0,0.0,96,0.00,,---,0.00,VWS V14.01,2013-08-23 12:00:00,
2013-08-23 07:30:00,60.4,59.0,30.07,NE,51,0.0,0.0,95,0.00,,---,0.00,VWS V14.01,2013-08-23 12:30:00,
2013-08-23 08:00:00,64.5,62.4,30.07,NE,51,0.0,0.0,93,0.00,,---,0.00,VWS V14.01,2013-08-23 13:00:00,
2013-08-23 08:30:00,68.3,62.9,30.08,NE,51,0.0,0.0,83,0.00,,---,0.00,VWS V14.01,2013-08-23 13:30:00,
2013-08-23 09:00:00,71.4,62.7,30.08,NE,51,0.0,0.0,74,0.00,,---,0.00,VWS V14.01,2013-08-23 14:00:00,
2013-08-23 09:30:00,72.9,62.1,30.08,SE,128,0.0,0.0,69,0.00,,---,0.00,VWS V14.01,2013-08-23 14:30:00,
2013-08-23 10:00:00,74.8,60.5,30.09,NNE,26,0.0,0.0,61,0.00,,---,0.00,VWS V14.01,2013-08-23 15:00:00,
2013-08-23 10:30:00,75.5,61.1,30.09,East,84,0.0,5.0,61,0.00,,---,0.00,VWS V14.01,2013-08-23 15:30:00,
2013-08-23 11:00:00,76.2,59.9,30.09,East,90,0.0,5.0,57,0.00,,---,0.00,VWS V14.01,2013-08-23 16:00:00,
2013-08-23 11:30:00,76.9,58.5,30.08,SE,136,0.0,5.0,53,0.00,,---,0.00,VWS V14.01,2013-08-23 16:30:00,
2013-08-23 12:00:00,77.4,60.5,30.08,SE,139,1.0,6.0,56,0.00,,---,0.00,VWS V14.01,2013-08-23 17:00:00,
2013-08-23 12:30:00,78.3,59.2,30.08,SSE,151,0.0,6.0,52,0.00,,---,0.00,VWS V14.01,2013-08-23 17:30:00,
2013-08-23 13:00:00,77.9,59.9,30.07,SE,127,0.0,10.0,54,0.00,,---,0.00,VWS V14.01,2013-08-23 18:00:00,
2013-08-23 13:30:00,78.2,60.2,30.07,SE,144,0.0,7.0,54,0.00,,---,0.00,VWS V14.01,2013-08-23 18:30:00,
2013-08-23 14:00:00,78.1,57.4,30.07,SE,132,0.0,6.0,49,0.00,,---,0.00,VWS V14.01,2013-08-23 19:00:00,
2013-08-23 14:30:00,79.1,57.8,30.06,SE,128,0.0,10.0,48,0.00,,---,0.00,VWS V14.01,2013-08-23 19:30:00,
2013-08-23 15:00:00,80.0,56.8,30.05,ESE,117,4.0,7.0,45,0.00,,---,0.00,VWS V14.01,2013-08-23 20:00:00,
2013-08-23 15:30:00,78.2,56.9,30.05,SE,139,1.0,10.0,48,0.00,,---,0.00,VWS V14.01,2013-08-23 20:30:00,
2013-08-23 16:00:00,78.3,59.2,30.05,ENE,70,2.0,8.0,52,0.00,,---,0.00,VWS V14.01,2013-08-23 21:00:00,
2013-08-23 16:30:00,77.8,60.4,30.05,SE,133,0.0,9.0,55,0.00,,---,0.00,VWS V14.01,2013-08-23 21:30:00,
2013-08-23 17:00:00,77.3,60.4,30.06,ESE,111,0.0,9.0,56,0.00,,---,0.00,VWS V14.01,2013-08-23 22:00:00,
2013-08-23 17:30:00,76.3,58.5,30.06,SE,127,5.0,9.0,54,0.00,,---,0.00,VWS V14.01,2013-08-23 22:30:00,
2013-08-23 18:00:00,75.7,58.9,30.05,ESE,105,0.0,7.0,56,0.00,,---,0.00,VWS V14.01,2013-08-23 23:00:00,
2013-08-23 18:30:00,73.9,60.5,30.05,ESE,123,1.0,7.0,63,0.00,,---,0.00,VWS V14.01,2013-08-23 23:30:00,
2013-08-23 19:00:00,72.0,60.0,30.05,SE,133,0.0,5.0,66,0.00,,---,0.00,VWS V14.01,2013-08-24 00:00:00,
2013-08-23 19:30:00,68.9,59.1,30.05,SE,132,0.0,0.0,71,0.00,,---,0.00,VWS V14.01,2013-08-24 00:30:00,
2013-08-23 20:00:00,66.8,58.6,30.06,SE,132,0.0,0.0,75,0.00,,---,0.00,VWS V14.01,2013-08-24 01:00:00,
2013-08-23 20:30:00,64.2,57.9,30.07,SE,132,0.0,0.0,80,0.00,,---,0.00,VWS V14.01,2013-08-24 01:30:00,
2013-08-23 21:00:00,62.0,58.1,30.08,SE,132,0.0,0.0,87,0.00,,---,0.00,VWS V14.01,2013-08-24 02:00:00,
2013-08-23 21:30:00,60.2,57.0,30.09,SE,132,0.0,0.0,89,0.00,,---,0.00,VWS V14.01,2013-08-24 02:30:00,
2013-08-23 22:00:00,59.1,56.5,30.08,SE,132,0.0,0.0,91,0.00,,---,0.00,VWS V14.01,2013-08-24 03:00:00,
2013-08-23 22:30:00,57.7,55.4,30.09,SE,132,0.0,0.0,92,0.00,,---,0.00,VWS V14.01,2013-08-24 03:30:00,
2013-08-23 23:00:00,57.2,55.2,30.09,SE,132,0.0,0.0,93,0.00,,---,0.00,VWS V14.01,2013-08-24 04:00:00,
2013-08-23 23:30:00,56.4,54.4,30.09,SE,132,0.0,0.0,93,0.00,,---,0.00,VWS V14.01,2013-08-24 04:30:00,